EHI
0 0 1 2 1 0 1 2 2 1 1 1 0 0 0 0 0 0 0 0 0 0 0 0 0 0 0 0 0 0 0 0 0 0 0 0 0 0 0 0 0 0 0
0 0 1 2 2 1 1 2 3 2 2 2 1 0 0 0 0 0 0 0 0 0 0 0 0 0 0 0 0 0 0 0 0 0 0 0 0 0 0 0 0 0 0
0 1 1 3 3 2 2 2 3 3 3 3 1 0 0 0 0 0 0 0 0 0 0 0 0 0 0 0 0 0 0 0 0 0 0 0 0 0 0 0 0 0 0
1 2 3 4 4 4 3 3 3 4 4 4 3 1 0 0 0 0 0 0 0 0 0 0 0 0 0 0 0 0 0 0 0 0 0 0 0 0 0 0 0 0 0
2 3 5 6 6 6 5 4 5 7 7 6 4 2 0 0 0 0 0 0 0 0 0 0 0 0 0 0 0 0 0 0 0 0 0 0 0 0 0 0 0 0 0
3 5 7 9 8 8 8 9 10 10 9 8 8 5 2 1 1 1 0 0 0 0 0 0 0 0 0 0 0 0 0 0 0 0 0 0 0 0 0 0 0 0 0
5 7 10 12 11 11 13 15 14 12 10 10 11 9 5 3 2 2 1 0 0 0 0 0 0 0 0 0 0 0 0 0 0 0 0 0 0 0 0 0 0 0 0
6 7 10 12 13 15 18 18 15 12 12 13 13 12 9 5 4 3 2 1 0 0 1 1 0 0 0 0 0 0 0 0 1 1 1 0 0 1 1 1 1 0 0
4 6 7 9 12 15 17 16 13 13 15 15 16 15 13 8 5 4 4 2 1 0 1 1 1 1 0 0 0 0 0 0 1 2 2 1 1 2 2 2 2 1 1
3 4 5 6 8 11 13 12 12 14 17 18 18 18 16 11 8 7 6 4 2 1 1 2 2 2 2 2 1 1 1 1 2 2 3 3 2 3 3 3 3 3 3
4 5 5 5 6 9 10 11 12 15 17 17 18 17 15 12 10 9 8 7 5 2 1 2 3 4 4 5 4 3 3 3 3 3 4 4 3 3 3 3 4 4 4
4 4 5 5 8 11 13 12 12 13 14 14 15 14 12 11 10 10 10 10 8 6 4 5 6 6 8 8 8 7 6 6 4 4 3 3 3 3 3 3 3 4 4
2 3 5 6 9 13 15 14 11 10 11 11 12 12 10 9 10 11 12 12 10 7 7 8 9 10 11 11 10 11 10 8 5 3 2 1 1 1 2 3 3 3 2
1 2 4 5 7 10 13 12 11 10 10 11 13 13 11 8 9 11 12 12 10 8 7 8 10 11 11 11 11 12 12 10 6 2 1 0 0 0 1 1 2 1 1
0 1 1 2 3 5 8 11 11 11 11 12 14 13 11 8 8 10 12 12 10 7 6 7 8 10 10 9 10 10 10 9 6 2 0 0 0 0 0 0 0 0 0
2 2 2 1 1 3 5 9 12 12 12 13 14 13 11 8 7 8 11 11 9 7 7 8 9 10 10 9 9 8 8 9 7 4 1 0 0 0 0 0 0 0 0
2 4 4 2 2 3 5 8 11 13 14 14 15 16 13 10 8 9 10 10 8 8 8 9 11 11 11 9 6 5 8 10 9 6 3 2 1 1 2 1 1 0 0
2 3 5 5 5 6 7 9 11 14 15 16 18 18 16 13 12 12 12 11 9 9 8 9 10 10 8 6 3 3 7 11 11 8 5 4 4 3 2 2 2 1 1
2 3 6 7 7 7 9 10 11 12 14 16 16 16 14 14 15 16 15 13 11 11 9 9 9 8 6 4 1 3 8 12 13 11 7 6 5 2 1 1 2 2 2
4 4 6 7 7 7 8 10 10 10 10 11 11 10 11 13 15 15 14 13 12 12 11 11 10 8 7 5 2 3 9 13 14 14 11 6 3 2 0 0 1 1 1
3 4 6 7 7 6 7 8 7 7 7 7 7 7 9 12 13 12 11 11 10 10 11 12 12 11 9 6 3 3 8 12 14 15 12 7 3 1 0 0 0 0 0
2 4 5 6 6 6 6 6 5 5 6 7 6 6 8 11 12 10 9 10 10 9 9 10 11 12 11 8 4 2 3 7 11 13 11 7 3 1 0 0 0 0 0
2 3 4 6 7 6 6 5 4 4 6 8 8 7 8 11 11 11 10 10 12 12 11 11 11 11 11 9 6 3 1 2 5 8 8 4 2 1 0 0 0 0 0
1 2 3 4 6 6 4 3 3 4 6 7 7 8 9 11 12 12 12 13 14 15 14 13 13 12 11 10 8 5 2 1 2 4 5 3 2 1 1 1 1 0 0
0 1 1 2 4 4 2 1 1 3 4 5 6 7 9 11 13 14 14 14 14 14 12 12 13 12 11 8 6 5 2 1 1 3 4 4 3 2 2 2 2 1 0
0 0 0 0 2 3 2 1 1 2 4 4 5 6 9 12 13 14 14 12 12 11 8 9 11 11 9 6 3 2 1 1 1 2 5 5 4 3 3 3 3 2 1
Wind_Speed
4 4 4 5 4 4 4 4 4 3 3 2 2 1 0 0 0 0 0 0 0 1 1 1 0 1 1 1 1 1 1 1 1 1 1 1 1 1 1 2 2 2 2
4 4 4 4 5 5 5 5 4 4 3 3 2 2 1 1 0 1 1 1 0 1 1 1 1 1 1 1 1 2 1 1 1 2 1 1 2 2 1 1 2 2 2
8 6 6 6 5 5 6 6 5 4 3 3 2 2 2 2 1 1 1 1 0 0 1 1 1 1 2 2 2 2 2 1 1 1 2 1 1 2 2 1 0 1 1
8 7 7 7 7 7 5 5 5 4 3 4 3 3 2 2 1 0 0 1 1 1 1 1 1 1 1 1 2 2 2 2 1 1 1 1 2 1 1 2 1 1 1
10 10 10 9 7 6 5 5 4 4 3 4 4 4 2 1 1 1 1 1 2 2 1 1 1 1 1 1 1 1 2 2 2 2 1 1 1 1 1 1 2 2 1
9 9 8 6 5 5 5 5 5 4 4 4 4 4 4 3 2 1 0 0 1 1 1 1 1 1 1 1 1 1 2 1 2 1 1 2 1 2 2 2 1 2 2
8 8 8 8 7 7 7 7 6 5 4 4 4 4 4 4 3 2 1 1 0 1 1 0 0 1 1 1 1 1 1 1 2 1 1 1 1 2 2 2 1 1 2
5 6 7 8 8 8 7 7 7 6 5 5 4 3 3 3 2 2 2 2 1 1 1 1 1 1 1 1 1 1 1 1 1 1 1 1 1 1 2 2 2 1 2
5 6 6 7 7 7 8 8 7 6 5 5 4 3 3 3 3 2 2 1 1 1 1 1 1 1 1 1 1 1 1 1 1 1 1 1 1 1 1 2 2 3 2
3 3 4 6 6 6 6 6 6 6 5 5 4 4 3 3 3 2 2 2 2 2 1 1 1 1 1 1 1 1 1 1 1 1 1 1 1 1 1 2 2 2 3
2 3 3 4 5 5 6 5 5 5 5 5 4 3 3 3 3 2 2 2 2 2 2 2 2 2 1 1 1 1 1 1 1 1 1 2 2 1 1 1 2 2 2
1 2 3 4 5 5 5 5 5 4 5 4 4 4 3 3 3 3 3 2 2 2 2 2 2 2 2 2 2 2 2 2 2 2 2 3 2 2 2 1 2 2 2
3 3 3 3 3 3 4 4 4 4 4 4 4 3 3 3 3 3 2 2 2 2 2 2 2 2 2 2 2 2 2 3 3 3 3 3 2 3 2 2 2 2 2
3 3 3 2 2 3 3 3 3 2 2 2 3 3 3 4 3 3 3 3 3 3 2 2 3 3 2 2 2 2 2 2 3 3 3 3 3 3 3 2 3 2 2
3 2 2 2 2 2 2 2 2 2 3 3 2 3 3 2 2 2 3 3 3 3 2 2 2 2 2 2 2 2 2 2 3 3 3 3 3 4 3 3 3 3 2
1 2 2 1 1 1 1 2 2 2 3 3 3 2 2 2 3 3 2 2 2 2 2 2 2 2 2 2 3 2 2 2 3 3 3 3 3 3 3 3 4 4 3
0 1 0 0 1 1 2 2 2 2 3 3 3 3 3 3 3 3 2 3 3 2 3 3 3 3 3 3 3 3 2 3 3 3 3 2 2 2 2 2 3 3 4
1 0 1 0 0 0 1 1 2 2 2 2 2 2 2 3 2 2 2 3 2 2 3 3 3 3 3 2 3 3 2 2 3 3 3 3 3 2 2 2 2 3 3
1 1 1 1 1 0 0 1 1 2 2 3 2 2 2 2 2 2 2 2 2 2 2 2 2 2 3 3 3 3 2 2 3 3 3 3 3 2 1 1 2 3 3
1 1 1 1 0 0 1 1 0 1 2 3 3 3 3 3 3 3 3 2 2 2 1 1 2 2 3 3 2 3 2 3 3 3 3 3 3 3 2 2 2 3 4
2 1 0 0 1 1 1 1 1 2 3 2 2 3 3 4 4 3 2 2 2 2 2 2 2 3 3 3 2 3 2 3 3 3 3 2 2 3 3 3 3 5 3
2 1 1 1 1 1 2 2 3 4 3 2 2 3 3 3 3 3 3 2 3 2 3 3 3 2 2 2 3 3 4 3 3 3 3 3 3 3 3 3 3 2 2
2 1 1 1 2 1 2 3 4 2 2 2 3 3 3 3 3 3 3 2 2 3 3 3 3 3 2 2 3 4 4 3 3 3 3 3 3 2 2 2 1 1 1
2 2 1 1 3 3 2 2 3 1 1 1 3 3 2 3 3 2 3 3 3 3 3 3 3 3 2 2 2 2 2 2 2 2 2 1 1 1 1 1 1 1 1
2 1 1 2 3 3 3 3 2 1 0 1 3 3 2 2 2 2 2 3 3 4 4 4 3 3 3 4 3 2 2 2 2 1 0 0 0 0 1 0 0 0 1
2 2 2 2 3 3 3 3 2 1 1 2 2 2 2 2 1 2 1 2 3 4 5 4 4 4 4 4 3 4 3 3 2 2 1 1 2 2 2 2 1 1 1
Wind_Direction
202 183 177 171 161 160 162 169 164 159 142 133 137 132 153 329 14 320 289 224 161 144 142 169 137 132 148 167 146 139 116 82 112 93 14 340 299 231 239 229 220 232 237
182 185 181 174 176 180 181 179 177 170 164 158 156 150 142 135 175 340 8 20 118 152 163 168 164 154 152 147 150 151 137 103 106 130 102 355 350 347 285 226 223 240 234
194 192 190 186 178 183 187 187 184 175 171 152 121 96 75 50 36 12 350 338 40 123 144 152 147 150 159 173 179 165 159 167 115 128 142 149 250 317 339 340 293 253 221
196 193 193 192 190 192 183 177 171 166 161 149 140 136 144 163 202 231 327 355 21 45 89 110 127 128 132 158 186 168 160 159 168 133 132 163 166 172 328 344 353 332 289
196 196 197 195 192 183 175 172 163 164 162 155 153 147 150 169 143 84 55 18 12 24 48 78 93 105 113 125 133 127 146 162 167 166 155 150 123 161 178 287 325 346 324
197 198 194 184 182 173 167 166 165 173 167 164 165 162 166 159 140 129 112 8 356 3 16 70 81 82 92 113 125 120 129 147 149 153 154 161 171 188 180 220 273 301 307
189 190 186 183 182 178 176 173 172 181 177 172 176 174 172 163 172 184 186 180 243 305 299 75 110 114 124 115 111 113 121 147 146 167 182 187 203 185 174 180 233 275 296
183 188 190 185 184 182 177 174 176 184 181 181 188 182 174 172 186 191 184 195 215 236 244 181 166 165 151 140 122 126 160 138 154 180 184 196 221 196 191 184 186 246 287
184 189 183 177 180 178 178 177 176 178 178 180 178 177 178 183 194 194 189 200 217 219 205 186 186 200 179 169 148 149 179 143 168 208 199 217 242 212 210 201 198 201 242
185 182 178 180 178 174 171 168 173 177 177 173 177 180 184 193 194 182 190 202 211 209 185 189 193 195 191 180 164 182 195 175 222 218 207 235 243 235 215 207 212 212 214
180 179 174 169 161 154 154 160 169 168 167 173 175 174 181 192 186 191 208 211 211 205 205 208 206 203 205 192 180 207 205 204 232 235 220 248 247 242 243 224 214 216 207
141 147 140 137 136 145 154 161 169 176 183 177 170 178 185 183 189 202 213 205 207 211 213 211 211 219 219 208 200 220 224 219 232 243 239 253 249 246 247 233 228 223 214
79 88 95 123 141 148 150 155 169 183 186 173 172 179 186 192 201 209 212 210 216 221 217 209 219 229 230 225 222 220 230 235 240 244 244 249 244 254 246 234 234 232 227
80 88 93 106 135 137 141 152 165 168 161 162 176 191 202 205 206 208 206 213 215 216 220 225 231 235 233 228 223 219 231 240 252 255 249 246 238 242 237 232 229 221 224
63 75 89 80 78 98 117 142 155 154 153 154 187 211 208 204 201 202 206 212 218 221 216 221 235 239 229 225 215 227 234 239 256 263 256 247 239 238 231 227 216 207 214
69 61 64 74 87 118 138 144 158 165 156 168 194 200 202 206 211 213 201 201 213 220 214 221 227 237 240 232 213 207 232 236 241 256 264 261 258 255 244 236 226 211 210
89 81 71 230 241 216 172 171 176 167 164 180 195 198 199 206 219 219 206 211 216 211 218 229 224 236 248 243 226 210 214 229 240 245 253 261 272 265 259 253 243 240 229
12 266 220 211 264 272 165 151 152 156 166 181 192 198 196 205 201 197 212 229 225 212 216 228 231 236 254 243 227 221 222 237 246 242 238 245 262 260 249 258 269 270 261
272 269 244 198 150 145 146 129 153 159 178 199 205 204 190 190 189 198 215 219 212 220 225 227 227 246 267 255 228 199 225 244 256 255 248 245 254 267 237 220 251 272 280
319 300 335 71 126 224 128 118 152 175 223 222 216 213 205 202 205 211 218 216 207 223 229 250 242 240 261 268 239 205 220 244 262 269 263 251 251 245 205 209 231 257 272
311 308 342 132 257 252 138 160 248 265 262 245 218 218 214 212 211 210 211 202 207 225 237 247 250 246 256 270 250 219 219 231 244 255 264 264 250 238 224 216 229 243 250
330 319 319 312 306 260 169 198 244 259 271 268 252 244 233 226 217 201 212 205 201 216 240 251 264 265 269 274 272 246 234 232 230 247 254 255 242 234 228 227 249 247 234
315 302 275 304 314 283 203 209 249 255 248 256 260 258 244 227 216 205 211 208 208 218 233 238 253 274 279 277 274 260 248 243 240 253 256 253 235 231 234 241 223 182 185
310 310 305 312 309 299 279 261 266 247 204 264 268 259 243 235 227 210 204 209 214 221 228 237 248 262 268 271 274 269 264 263 264 281 286 263 219 214 233 213 209 203 201
297 304 288 292 300 310 309 304 296 258 226 258 262 262 253 232 228 225 218 214 221 218 217 228 228 236 255 260 255 248 249 246 243 218 187 2 341 296 291 274 259 219 187
291 301 302 292 292 300 306 306 293 247 220 267 272 263 261 254 237 233 257 240 228 228 226 229 228 244 250 259 241 250 253 250 197 161 204 235 237 239 244 242 232 222 221